Location: Unspecified
(45.6635°N, 122.4424°W)
Time: 15:20:23
(UTC+00:00)

Okean 3 - Visible Passes

Search period start: 20 February 2018 00:00
Search period end: 02 March 2018 00:00
Orbit: 576 x 603 km, 82.5° (Epoch: 20 February)

Date Brightness Start Highest point End Pass type
(mag) Time Alt. Az. Time Alt. Az. Time Alt. Az.
20 Feb 3.4 03:07:06 10° N 03:11:18 88° W 03:15:28 10° S visible
21 Feb 4.0 03:15:17 10° NNW 03:19:24 59° W 03:23:29 10° S visible
22 Feb 4.9 03:23:33 10° NNW 03:27:28 39° W 03:31:20 10° SSW visible
23 Feb 5.7 03:31:58 10° NNW 03:35:28 27° W 03:38:59 10° SSW visible
23 Feb 6.8 14:25:22 10° ESE 14:27:31 14° E 14:29:39 10° NE visible
24 Feb 6.4 03:40:33 10° NW 03:43:27 19° W 03:46:21 10° SW visible
25 Feb 3.5 02:10:32 10° N 02:14:41 58° E 02:18:48 10° SSE visible
25 Feb 6.9 03:49:32 10° WNW 03:51:24 13° W 03:53:16 10° WSW visible
26 Feb 3.4 02:18:37 10° N 02:22:49 87° ENE 02:27:00 10° S visible
27 Feb 4.1 02:26:46 10° NNW 02:30:55 62° W 02:35:02 10° S visible
28 Feb 5.0 02:35:02 10° NNW 02:38:59 41° W 02:42:54 10° SSW visible
01 Mar 5.8 02:43:24 10° NNW 02:47:00 28° W 02:50:36 10° SSW visible
01 Mar 7.0 13:37:09 10° ESE 13:39:04 13° E 13:40:58 10° ENE visible
